This is the latest recevied weather packets stored in our database for station/object WC4PEM-7. If no packets are shown the sender has not sent any weather packets the latest 10 day(s).
| Time | Temp. | Humidity | Pressure | Rain* | Wind** | Luminosity | Snow |
|---|---|---|---|---|---|---|---|
| 1777752825 | 22.22° C | 81% | 1011.7 hPa | 0 mm | - | - | - |
| 1777752525 | 23.33° C | 77% | 1011.4 hPa | 0 mm | - | - | - |
| 1777752225 | 24.44° C | 72% | 1011.6 hPa | 0 mm | - | - | - |
| 1777751925 | 26.67° C | 69% | 1011.4 hPa | 0 mm | - | - | - |
| 1777751625 | 27.22° C | 77% | 1011 hPa | 0 mm | - | - | - |
| 1777751325 | 27.22° C | 76% | 1010.6 hPa | 0 mm | - | - | - |
| 1777751127 | 27.78° C | 75% | 1010.9 hPa | 0 mm | - | - | - |
| 1777751025 | 27.22° C | 76% | 1010.6 hPa | 0 mm | - | - | - |
| 1777750726 | 27.78° C | 74% | 1010.9 hPa | 0 mm | - | - | - |
| 1777750725 | 27.78° C | 75% | 1010.9 hPa | 0 mm | - | - | - |
| 1777750425 | 27.78° C | 74% | 1010.9 hPa | 0 mm | - | - | - |
| 1777750125 | 27.78° C | 74% | 1011 hPa | 0 mm | - | - | - |
| 1777750123 | 27.78° C | 73% | 1011 hPa | 0 mm | - | - | - |
| 1777749864 | 27.78° C | 72% | 1010.6 hPa | 0 mm | - | - | - |
| 1777749825 | 27.78° C | 73% | 1011 hPa | 0 mm | - | - | - |
| 1777749526 | 27.78° C | 73% | 1010.9 hPa | 0 mm | - | - | - |
| 1777749269 | 27.78° C | 73% | 1011.1 hPa | 0 mm | - | - | - |
| 1777749225 | 27.78° C | 72% | 1010.6 hPa | 0 mm | - | - | - |
| 1777748925 | 27.78° C | 72% | 1010.9 hPa | 0 mm | - | - | - |
| 1777748799 | 27.78° C | 72% | 1010.9 hPa | 0 mm | - | - | - |
| 1777748626 | 27.78° C | 72% | 1010.9 hPa | 0 mm | - | - | - |
| 1777748504 | 27.78° C | 73% | 1011.1 hPa | 0 mm | - | - | - |
| 1777748326 | 27.78° C | 73% | 1011.1 hPa | 0 mm | - | - | - |
| 1777748075 | 28.33° C | 72% | 1011 hPa | 0 mm | - | - | - |
| 1777748026 | 27.78° C | 73% | 1011 hPa | 0 mm | - | - | - |
* Rain latest hour (hover to see other rain measurements)
** Current wind speed in m/s (hover to see current wind gust speed)